Location: Apollinopolis Magna
(24.9792°N, 32.8772°E)
Time: 04:34:32
(UTC+00:00)

Meteor 1-5 Rocket - Pass Details

Date: 02 March 2021
Orbit: 790 x 914 km, 81.2° (Epoch: 12 April)

Event Time Altitude Azimuth Distance (km) Brightness Sun altitude
Rises 16:53:50 0° 178° (S) 3,269 7.3 -15.0°
Reaches altitude 10° 16:56:12 10° 176° (S) 2,345 6.5 -15.5°
Maximum altitude 17:01:25 65° 95° (E) 873 4.0 -16.7°
Drops below altitude 10° 17:06:44 10° 14° (NNE) 2,393 6.4 -17.9°
Sets 17:09:10 0° 11° (NNE) 3,342 7.2 -18.4°
